Dewpoint
7 7 8 8 8 7 6 7 7 7 8 9 9 9 9 8 8 9 10 10 9 9 9 10 11 12 12 13 13 14 15 15 16 16 15 14 14 14 14 14 14 13
6 7 7 8 8 7 6 7 7 7 6 7 8 9 8 7 8 9 9 9 9 9 9 9 10 11 11 12 12 13 14 15 15 15 15 14 14 14 13 13 13 14
6 7 6 7 7 7 7 7 8 8 6 6 7 8 8 7 7 8 9 9 9 9 9 10 10 10 10 11 11 11 13 13 14 14 14 13 14 14 13 13 13 14
6 7 7 7 7 7 7 7 8 8 7 6 6 7 8 8 7 8 9 9 10 10 10 10 10 9 9 10 11 11 11 12 13 13 13 13 14 13 13 14 14 14
6 6 6 6 6 6 7 7 7 8 7 6 5 6 7 7 8 8 8 9 9 9 9 10 10 10 9 10 10 10 11 11 12 13 12 12 12 12 12 13 14 14
7 6 6 6 6 6 6 6 7 7 7 6 5 5 6 7 7 7 7 6 5 6 7 8 8 9 9 9 10 10 10 10 11 12 12 11 11 11 11 11 12 13
8 6 6 6 6 6 6 6 6 7 6 5 5 4 4 4 4 5 4 3 2 2 3 5 7 8 9 9 9 9 9 10 11 11 11 10 10 11 10 10 11 11
11 9 7 7 6 6 6 6 7 6 6 6 5 3 2 2 2 2 2 1 0 0 1 2 4 6 8 9 8 9 9 9 10 10 10 10 10 10 10 10 10 10
13 12 10 8 6 6 6 6 6 6 6 7 5 4 2 2 1 1 1 1 0 0 -0 -0 1 3 5 6 7 7 8 9 9 10 10 10 9 9 9 9 10 9
14 13 13 11 8 5 5 6 6 7 7 7 6 5 4 2 1 1 1 1 -0 1 -0 -0 0 0 1 3 4 4 6 6 8 9 9 9 9 9 9 9 9 9
15 14 14 13 10 6 4 5 6 7 8 8 7 7 5 3 2 1 0 0 -0 1 1 -0 0 -0 -0 0 1 2 3 4 6 7 7 8 8 8 8 9 9 8
15 15 15 14 12 9 6 3 4 6 7 8 7 7 6 4 3 2 1 1 0 1 1 0 0 0 -0 -0 -0 0 2 3 4 4 5 5 6 6 7 8 8 8
15 15 15 15 14 12 10 6 4 3 4 5 6 6 6 4 3 2 1 1 0 0 1 1 1 0 -0 -1 -1 -1 -0 1 2 3 4 4 5 5 6 6 7 7
15 15 16 15 15 14 13 11 8 5 3 2 3 4 4 3 2 1 1 0 -0 -0 -0 -0 -1 -1 -1 -1 -2 -2 -1 -1 -0 1 1 2 3 4 5 5 6 6
16 15 16 16 15 15 15 14 12 10 8 6 5 4 3 3 2 2 1 -0 -1 -1 -2 -1 -1 -2 -2 -2 -2 -3 -3 -2 -1 -1 -0 -0 1 2 3 5 5 5
16 16 16 16 16 16 16 15 15 14 12 10 9 7 6 5 4 3 2 2 0 -0 -1 -1 -1 -2 -2 -3 -3 -3 -4 -3 -2 -1 -1 -1 1 2 2 3 4 4
16 16 16 16 16 16 16 16 16 15 15 14 12 11 10 8 7 6 5 4 3 2 2 2 1 0 -0 -2 -2 -3 -3 -3 -3 -2 -1 -1 0 1 2 2 2 3
16 16 16 16 16 16 16 16 16 16 16 15 15 14 13 12 11 9 8 8 7 6 5 4 4 3 2 1 0 -1 -1 -2 -2 -2 -1 0 1 2 2 3 3 3
16 16 16 16 16 16 16 16 16 16 16 16 16 16 15 14 14 13 12 11 10 9 8 7 6 5 4 3 2 1 -0 -1 -1 -1 -0 1 2 3 4 4 4 4
16 16 16 16 16 16 16 16 16 16 17 17 17 17 17 16 16 15 14 13 12 11 10 9 8 7 6 5 4 2 2 1 0 2 2 3 4 4 5 6 5 5
17 17 17 17 17 17 17 17 17 17 17 17 17 18 17 17 17 16 16 15 14 13 12 11 10 9 7 7 5 4 3 3 3 4 4 5 5 6 7 7 7 7
17 17 17 17 17 17 17 17 17 17 17 17 18 18 18 18 17 17 16 15 15 14 14 12 10 9 9 7 6 6 6 6 6 6 6 7 6 7 8 9 9 8
17 17 17 17 17 17 17 17 17 17 17 18 18 18 18 18 18 17 17 16 15 14 14 12 11 10 9 8 7 7 8 8 8 8 8 8 7 8 9 10 11 10
17 17 17 17 17 18 18 17 18 18 18 18 18 18 18 18 18 18 18 17 15 14 13 12 12 10 10 9 8 8 9 10 10 10 10 9 9 9 10 11 12 12
17 17 17 17 18 18 18 18 18 18 18 18 18 18 18 18 19 18 18 18 17 15 13 13 12 11 10 10 9 9 10 11 11 11 11 11 10 10 11 12 13 13
17 17 17 17 17 17 17 18 17 18 18 18 18 18 18 18 18 18 18 18 18 17 16 15 14 12 11 10 9 9 10 11 12 12 12 12 11 12 12 13 13 13
Wind_Speed
34 33 34 34 34 32 30 27 25 25 24 24 24 23 21 19 18 18 18 17 17 16 14 14 14 14 14 14 13 12 11 9 8 7 8 9 9 10 11 12 12 12
36 35 34 34 35 34 32 29 27 25 25 24 25 24 22 21 20 20 19 18 17 16 15 14 14 14 14 14 13 12 12 11 10 9 9 9 10 10 10 11 12 12
37 37 36 35 35 35 33 31 29 27 26 25 25 25 23 22 21 21 20 19 17 16 15 15 15 15 14 14 13 13 12 12 11 10 10 11 11 11 10 11 11 12
39 39 38 37 36 35 34 33 31 29 27 27 26 25 24 23 22 22 21 20 19 18 17 16 16 16 15 15 15 14 13 12 11 11 11 11 12 12 12 12 12 12
40 40 40 39 38 36 35 34 33 30 28 27 26 25 25 24 23 22 21 20 20 19 19 18 18 17 16 16 16 15 14 13 13 13 13 12 12 12 12 13 13 13
40 41 41 40 39 38 37 35 34 32 30 28 27 26 25 24 23 22 21 20 20 19 19 20 19 19 18 18 18 17 16 15 15 15 15 14 13 13 13 14 15 15
41 40 41 42 41 40 39 37 35 34 32 29 28 27 25 24 24 23 22 21 20 20 19 20 20 19 19 19 19 18 18 18 17 17 17 16 14 14 14 14 15 16
41 40 41 42 42 42 41 40 38 36 34 32 31 29 27 26 25 24 23 23 22 21 20 20 20 20 20 19 19 19 18 18 19 19 19 18 17 16 15 15 16 16
41 41 41 42 43 44 44 42 41 39 37 36 34 32 31 29 27 26 25 24 24 23 22 21 21 20 21 21 20 19 19 18 19 19 19 19 18 17 17 16 17 17
41 41 41 42 43 45 46 44 43 42 41 39 37 36 34 32 30 29 28 27 26 26 25 24 23 22 22 22 21 21 20 20 19 20 20 19 19 18 18 18 18 18
41 41 42 42 43 45 46 46 46 45 44 43 41 40 38 36 34 33 31 30 30 29 28 28 26 25 24 23 22 22 22 22 21 21 21 21 20 19 19 19 19 20
41 41 42 42 43 44 45 46 47 47 47 46 45 43 42 40 38 37 35 34 33 32 31 30 29 28 27 26 25 24 23 23 23 23 23 22 22 21 20 20 20 20
42 41 40 40 41 42 44 45 46 47 47 47 47 46 45 44 42 41 39 38 36 35 34 33 32 32 30 29 27 26 26 25 24 23 23 23 24 23 22 22 22 22
43 41 39 38 38 39 41 43 45 46 46 47 47 48 47 46 45 43 42 40 39 38 37 36 35 35 33 32 30 29 28 27 26 25 24 24 24 24 24 24 23 23
44 42 41 39 37 37 38 40 42 45 46 46 47 47 47 47 46 45 44 43 41 40 39 38 37 37 36 34 32 31 29 29 28 27 26 25 25 25 25 26 25 25
44 43 42 41 40 38 37 37 38 41 43 46 47 47 47 47 47 47 47 46 44 42 41 40 39 38 37 35 34 32 31 30 29 29 28 27 26 26 26 27 27 27
45 44 43 42 41 39 38 37 37 38 39 42 45 46 47 47 48 48 48 48 47 46 44 42 41 39 38 36 35 34 33 32 31 31 30 29 28 28 27 27 27 27
46 45 44 43 41 40 38 38 37 38 38 39 41 43 45 46 48 48 49 48 48 48 47 45 44 41 39 38 36 35 34 34 33 33 32 32 31 30 29 28 27 27
46 45 44 43 42 40 38 38 38 38 39 39 40 41 42 44 46 47 48 48 48 48 48 47 45 42 41 39 38 37 36 36 35 35 35 34 32 31 30 29 29 28
45 45 45 43 42 41 40 39 39 38 38 38 39 39 41 43 44 45 46 46 47 47 47 46 45 42 41 40 39 38 37 37 37 37 37 36 34 33 32 31 30 29
45 45 44 44 42 42 41 40 39 39 38 37 38 38 39 40 41 42 44 44 45 45 46 46 44 42 40 40 39 38 38 38 38 38 38 37 36 34 33 32 31 31
44 45 44 44 43 43 42 41 40 39 38 38 38 38 38 38 38 39 41 42 43 43 45 45 43 41 40 39 38 38 38 39 39 39 39 38 37 36 34 33 32 32
43 44 44 44 44 44 44 42 41 40 39 38 39 39 39 39 37 37 37 39 41 42 43 43 42 40 39 38 37 37 38 39 40 40 40 39 37 36 35 34 33 33
43 44 44 44 45 45 44 43 42 41 40 40 40 40 40 39 38 36 35 36 37 39 41 42 41 39 38 37 37 37 38 40 40 40 40 39 37 36 35 34 34 33
41 42 43 44 45 45 45 44 43 42 42 41 41 41 40 39 39 38 37 36 35 36 37 40 40 39 38 38 37 37 38 39 40 41 41 39 37 36 35 34 34 33
40 41 42 43 45 45 45 44 43 43 42 42 42 42 41 40 40 40 40 39 37 36 36 37 39 39 38 38 37 37 38 38 40 42 41 39 37 36 36 35 34 33
Wind_Direction
215 214 213 215 218 220 223 224 222 221 220 220 220 218 215 215 215 217 220 219 217 218 218 217 218 223 224 219 213 207 207 211 214 224 232 225 223 225 223 222 223 227
215 215 214 215 217 220 222 223 224 224 223 223 223 222 219 217 216 217 219 220 219 220 222 223 224 227 230 230 225 217 216 218 217 223 232 229 227 228 225 223 222 223
216 216 216 216 217 218 220 221 224 227 227 226 224 222 221 219 216 217 218 219 220 221 223 226 228 231 235 236 235 230 224 223 221 225 232 231 231 232 229 228 227 224
218 217 218 219 219 219 220 221 223 225 228 227 225 222 222 222 220 218 219 220 222 222 224 227 229 233 237 239 240 239 233 228 228 232 235 233 234 235 233 233 233 229
220 219 219 220 221 221 221 222 223 225 226 227 226 223 222 224 223 220 220 222 223 225 226 228 231 233 236 239 240 242 241 236 234 237 239 238 237 239 239 240 240 236
223 221 221 222 223 223 223 223 224 225 226 226 225 224 222 222 222 220 222 224 226 229 229 230 232 233 233 235 238 242 245 244 242 242 244 243 242 244 244 245 245 243
228 225 223 223 223 224 225 226 226 227 228 227 226 226 225 223 222 222 224 228 230 231 232 233 234 233 233 233 235 239 243 245 246 246 248 249 249 249 248 248 248 248
231 229 227 225 224 224 226 228 228 229 230 229 228 229 229 228 227 226 227 230 232 234 236 237 238 236 235 234 236 238 241 244 246 247 249 251 252 252 250 250 250 249
232 232 230 228 227 226 226 228 230 231 232 232 232 232 233 233 232 231 231 232 235 238 239 241 243 242 240 239 240 240 242 244 246 247 248 250 252 253 252 252 251 250
233 233 232 230 229 228 227 228 229 232 233 234 235 236 236 237 236 235 235 235 237 239 242 244 246 247 246 245 244 244 244 245 246 248 249 250 252 253 253 253 253 253
234 234 234 232 231 230 229 229 229 231 233 235 236 237 239 240 240 239 239 238 238 240 243 246 247 249 250 249 249 248 247 247 248 249 251 253 254 254 254 253 254 256
234 234 235 235 233 232 231 231 231 231 233 235 237 238 240 241 242 242 242 242 242 242 244 246 248 251 252 252 253 251 250 250 250 251 253 255 256 256 255 254 254 256
234 235 236 237 237 236 234 234 234 234 234 236 237 238 240 241 242 243 244 244 245 245 246 247 248 250 252 253 254 254 253 253 253 255 256 256 257 258 257 256 254 254
235 236 237 238 239 239 238 237 237 237 238 238 239 239 240 242 243 244 245 245 246 246 247 248 250 251 252 253 253 254 255 256 257 258 259 259 259 258 258 258 256 255
235 236 237 238 239 240 241 241 240 240 240 241 241 242 243 243 244 245 247 247 247 248 248 249 251 251 252 252 253 253 255 257 259 260 262 263 262 259 258 257 256 255
235 236 238 238 239 240 242 242 242 242 242 242 243 244 245 246 246 247 248 249 250 250 250 250 251 251 252 252 253 253 254 256 258 260 263 264 264 262 260 257 255 255
235 236 237 239 240 241 242 243 244 244 244 244 245 245 246 247 248 249 249 250 251 252 252 252 252 251 252 252 253 253 254 255 256 258 261 263 263 262 261 259 257 255
235 236 237 239 240 241 243 244 245 245 245 246 246 246 247 247 248 249 250 251 252 253 254 254 254 253 253 253 253 253 254 255 256 258 259 261 261 261 260 260 258 257
235 236 237 239 240 242 243 244 245 245 246 246 247 248 248 248 249 250 250 251 252 253 254 255 256 255 254 254 254 253 254 255 256 257 259 260 261 261 261 260 259 258
235 237 238 240 241 242 243 244 245 246 247 247 248 248 248 249 250 250 251 251 251 252 254 255 256 256 255 255 255 254 254 255 255 257 258 260 261 262 262 262 260 259
235 237 239 241 242 242 243 244 246 247 248 248 249 249 250 250 250 250 251 252 252 252 253 254 255 255 256 256 256 256 256 256 256 256 257 258 260 261 262 263 261 260
237 238 239 241 242 242 243 244 246 247 249 249 249 249 251 251 250 250 251 252 252 252 253 253 254 255 256 256 257 257 257 258 258 257 257 257 258 259 261 262 262 261
238 239 240 241 241 241 243 245 246 248 250 250 249 250 250 250 250 251 252 252 252 252 252 253 254 255 255 256 256 257 258 258 258 258 257 257 257 258 259 261 262 261
241 242 242 242 242 242 244 246 247 249 250 251 251 251 252 252 252 252 253 253 253 253 253 254 255 256 256 256 257 257 258 258 258 258 258 258 257 257 257 259 261 261
244 245 245 244 244 245 246 247 248 250 251 251 251 252 253 253 253 252 253 254 255 255 255 255 256 256 256 256 256 256 257 258 258 258 258 258 257 255 255 257 259 261
243 245 245 246 247 248 249 250 250 251 251 251 251 252 253 253 253 252 253 255 256 256 257 256 257 256 256 255 254 254 256 257 257 257 257 257 255 254 253 255 257 259
Height
1561 1563 1565 1567 1569 1571 1572 1574 1576 1577 1579 1580 1581 1582 1583 1585 1586 1587 1588 1589 1589 1590 1591 1592 1592 1593 1594 1595 1595 1596 1596 1597 1598 1598 1599 1599 1600 1600 1600 1601 1601 1601
1559 1561 1564 1566 1567 1569 1571 1573 1574 1576 1577 1579 1580 1581 1583 1584 1585 1586 1587 1588 1588 1589 1590 1591 1592 1592 1593 1594 1595 1595 1596 1597 1597 1598 1598 1599 1599 1600 1600 1600 1601 1601
1556 1559 1561 1563 1565 1567 1569 1571 1573 1574 1576 1577 1579 1580 1582 1583 1584 1585 1586 1587 1587 1588 1589 1590 1591 1592 1592 1593 1594 1595 1595 1596 1597 1598 1598 1599 1599 1599 1600 1600 1600 1601
1554 1556 1559 1561 1563 1566 1568 1569 1571 1572 1574 1576 1577 1579 1580 1581 1583 1584 1584 1585 1586 1587 1588 1589 1590 1591 1592 1592 1593 1594 1595 1596 1597 1597 1598 1598 1599 1599 1599 1600 1600 1600
1551 1554 1556 1559 1561 1564 1566 1567 1569 1571 1572 1574 1576 1577 1579 1580 1581 1582 1583 1584 1585 1586 1587 1588 1589 1590 1591 1592 1592 1593 1594 1595 1596 1597 1597 1598 1598 1599 1599 1599 1599 1599
1549 1552 1554 1557 1559 1562 1564 1565 1567 1569 1570 1572 1574 1575 1577 1578 1579 1581 1582 1583 1584 1585 1586 1587 1588 1589 1590 1591 1592 1592 1593 1594 1595 1596 1596 1597 1598 1598 1598 1599 1599 1599
1547 1550 1552 1555 1557 1559 1561 1563 1565 1567 1568 1570 1572 1574 1575 1577 1578 1579 1580 1581 1583 1584 1585 1586 1586 1588 1589 1590 1591 1591 1592 1593 1594 1594 1595 1596 1597 1597 1597 1598 1598 1598
1544 1547 1550 1552 1555 1557 1559 1561 1563 1565 1567 1569 1570 1572 1573 1575 1576 1577 1579 1580 1581 1582 1583 1584 1585 1586 1587 1588 1589 1590 1591 1592 1593 1593 1594 1594 1595 1596 1596 1597 1597 1597
1542 1544 1547 1549 1552 1554 1556 1558 1560 1563 1565 1566 1568 1570 1571 1573 1574 1576 1577 1578 1579 1580 1581 1583 1584 1585 1586 1587 1587 1588 1589 1590 1591 1592 1592 1593 1594 1594 1595 1596 1596 1596
1539 1541 1544 1546 1548 1551 1553 1555 1558 1560 1562 1564 1566 1567 1569 1571 1572 1574 1575 1576 1577 1578 1579 1580 1582 1583 1584 1585 1586 1587 1588 1589 1589 1590 1591 1592 1593 1593 1594 1595 1595 1595
1536 1538 1540 1542 1545 1547 1549 1552 1555 1557 1560 1561 1563 1565 1567 1568 1570 1571 1572 1574 1575 1576 1577 1578 1580 1581 1582 1583 1584 1585 1586 1587 1588 1589 1589 1590 1591 1592 1593 1593 1594 1594
1533 1535 1537 1539 1541 1544 1546 1549 1552 1554 1557 1558 1561 1563 1564 1566 1567 1569 1570 1571 1572 1574 1575 1576 1577 1579 1580 1581 1582 1583 1584 1585 1586 1587 1588 1588 1589 1590 1591 1592 1592 1592
1530 1532 1534 1536 1539 1541 1544 1546 1549 1551 1553 1555 1558 1560 1561 1563 1564 1566 1567 1568 1570 1571 1572 1574 1575 1576 1577 1579 1580 1581 1582 1583 1584 1585 1586 1586 1587 1588 1588 1589 1590 1590
1527 1529 1532 1534 1536 1538 1541 1543 1545 1548 1550 1552 1554 1556 1558 1560 1561 1563 1564 1565 1567 1568 1569 1571 1572 1573 1574 1576 1577 1579 1580 1581 1582 1582 1583 1584 1585 1585 1586 1586 1587 1588
1524 1527 1529 1531 1534 1536 1538 1540 1542 1544 1546 1549 1550 1552 1554 1556 1558 1560 1561 1562 1563 1565 1567 1568 1569 1570 1571 1573 1574 1576 1577 1578 1579 1580 1580 1581 1582 1583 1583 1584 1585 1585
1521 1524 1526 1528 1530 1532 1534 1537 1539 1541 1543 1545 1546 1548 1550 1552 1554 1556 1557 1558 1560 1562 1563 1564 1565 1567 1568 1570 1571 1573 1574 1575 1576 1577 1577 1578 1579 1580 1580 1581 1582 1583
1518 1520 1523 1525 1527 1529 1531 1533 1535 1537 1539 1541 1543 1544 1546 1548 1550 1551 1553 1555 1556 1558 1559 1560 1562 1563 1565 1567 1568 1570 1571 1572 1572 1573 1574 1575 1575 1576 1577 1578 1579 1580
1515 1517 1519 1521 1523 1525 1527 1529 1531 1533 1535 1537 1538 1540 1542 1544 1546 1547 1548 1551 1552 1554 1555 1556 1558 1559 1562 1564 1565 1567 1568 1568 1569 1570 1570 1571 1572 1572 1573 1574 1576 1577
1512 1514 1516 1518 1519 1521 1523 1525 1527 1529 1530 1532 1534 1536 1538 1540 1541 1542 1544 1546 1548 1549 1551 1552 1553 1555 1558 1560 1561 1563 1564 1565 1565 1566 1566 1567 1568 1568 1569 1570 1571 1573
1510 1511 1512 1514 1516 1518 1520 1522 1523 1525 1526 1528 1530 1532 1534 1535 1536 1538 1540 1542 1544 1545 1546 1548 1549 1551 1553 1555 1557 1559 1560 1561 1562 1562 1562 1563 1563 1564 1565 1566 1567 1568
1507 1508 1510 1511 1513 1515 1517 1518 1520 1521 1523 1525 1527 1528 1529 1530 1532 1534 1536 1537 1539 1541 1542 1543 1544 1547 1549 1551 1553 1554 1556 1557 1558 1558 1558 1558 1559 1560 1561 1562 1563 1564
1504 1505 1507 1509 1510 1512 1513 1515 1516 1518 1520 1522 1523 1525 1526 1527 1528 1530 1531 1533 1534 1536 1538 1538 1540 1542 1545 1546 1548 1550 1551 1552 1553 1553 1554 1554 1555 1556 1556 1557 1559 1560
1501 1502 1504 1505 1507 1508 1509 1511 1512 1514 1516 1518 1520 1521 1523 1524 1525 1526 1527 1528 1530 1531 1532 1533 1535 1538 1540 1542 1544 1545 1546 1547 1548 1548 1549 1550 1551 1552 1553 1553 1554 1555
1498 1499 1500 1502 1503 1504 1505 1507 1509 1511 1512 1514 1516 1517 1518 1520 1521 1523 1524 1524 1525 1526 1528 1529 1531 1533 1536 1537 1539 1540 1542 1542 1543 1544 1545 1546 1547 1548 1549 1550 1550 1551
1495 1496 1497 1498 1499 1501 1502 1503 1505 1507 1509 1510 1512 1513 1515 1517 1518 1520 1520 1521 1521 1522 1524 1525 1526 1528 1531 1532 1534 1535 1537 1538 1539 1540 1541 1542 1543 1544 1545 1546 1546 1548
1491 1492 1493 1495 1496 1497 1499 1500 1501 1503 1505 1506 1508 1509 1511 1513 1514 1516 1516 1517 1518 1519 1520 1521 1522 1524 1526 1527 1528 1530 1532 1534 1535 1536 1537 1538 1539 1540 1541 1541 1542 1544